QPF
0.02 0.03 0.02 0.01 0.01 0.01 0.01 0.01 0.01 0.00 0.00 0.00 0.00 0.01 0.01 0.01 0.00 0.01 0.00 0.00 0.00 0.01 0.01 0.01 0.01 0.02 0.04 0.05 0.05 0.05 0.07 0.09 0.12 0.15 0.15 0.13 0.10 0.08 0.04 0.02 0.01 0.01 0.01 0.02
0.01 0.02 0.01 0.01 0.01 0.01 0.01 0.01 0.01 0.01 0.01 0.00 0.01 0.00 0.01 0.02 0.01 0.00 0.00 0.00 0.00 0.01 0.02 0.02 0.01 0.01 0.03 0.04 0.05 0.05 0.06 0.08 0.09 0.11 0.11 0.11 0.09 0.07 0.06 0.03 0.01 0.01 0.01 0.01
0.01 0.01 0.01 0.01 0.01 0.01 0.01 0.01 0.01 0.01 0.01 0.01 0.01 0.01 0.01 0.02 0.02 0.01 0.00 0.00 0.00 0.01 0.01 0.02 0.01 0.02 0.02 0.04 0.04 0.04 0.05 0.06 0.07 0.08 0.08 0.09 0.08 0.07 0.05 0.04 0.01 0.01 0.01 0.01
0.01 0.00 0.01 0.01 0.01 0.01 0.01 0.00 0.01 0.01 0.01 0.02 0.02 0.02 0.01 0.02 0.02 0.01 0.01 0.00 0.00 0.01 0.01 0.01 0.01 0.01 0.02 0.03 0.04 0.03 0.04 0.05 0.06 0.06 0.06 0.07 0.08 0.07 0.05 0.04 0.02 0.01 0.01 0.01
0.01 0.01 0.01 0.01 0.01 0.00 0.01 0.01 0.01 0.01 0.02 0.03 0.02 0.02 0.02 0.01 0.02 0.03 0.02 0.01 0.01 0.01 0.01 0.01 0.01 0.01 0.02 0.02 0.03 0.03 0.04 0.04 0.04 0.05 0.05 0.06 0.07 0.06 0.04 0.03 0.02 0.01 0.01 0.01
0.01 0.01 0.01 0.01 0.00 0.00 0.00 0.01 0.01 0.02 0.04 0.05 0.03 0.03 0.02 0.03 0.03 0.03 0.02 0.01 0.01 0.01 0.01 0.01 0.01 0.02 0.02 0.02 0.02 0.03 0.04 0.04 0.04 0.04 0.04 0.04 0.04 0.05 0.05 0.04 0.02 0.01 0.01 0.01
0.02 0.02 0.02 0.01 0.01 0.01 0.01 0.02 0.04 0.04 0.05 0.04 0.02 0.02 0.02 0.02 0.02 0.02 0.02 0.02 0.01 0.01 0.01 0.01 0.01 0.01 0.01 0.02 0.02 0.02 0.03 0.03 0.04 0.04 0.04 0.03 0.03 0.03 0.04 0.05 0.03 0.02 0.01 0.01
0.01 0.02 0.02 0.02 0.02 0.02 0.01 0.02 0.04 0.04 0.03 0.03 0.02 0.02 0.01 0.01 0.01 0.01 0.01 0.01 0.01 0.01 0.01 0.01 0.01 0.01 0.01 0.01 0.02 0.02 0.02 0.03 0.03 0.03 0.03 0.02 0.02 0.02 0.02 0.03 0.04 0.03 0.02 0.01
0.02 0.01 0.01 0.01 0.01 0.02 0.03 0.02 0.03 0.04 0.02 0.02 0.03 0.02 0.01 0.01 0.01 0.01 0.01 0.01 0.01 0.01 0.01 0.01 0.01 0.01 0.01 0.01 0.02 0.02 0.02 0.03 0.02 0.02 0.02 0.02 0.02 0.01 0.01 0.01 0.02 0.02 0.02 0.02
0.02 0.02 0.01 0.00 0.01 0.01 0.02 0.02 0.03 0.04 0.03 0.03 0.03 0.02 0.02 0.01 0.01 0.01 0.01 0.01 0.01 0.01 0.01 0.01 0.02 0.02 0.01 0.01 0.01 0.02 0.02 0.02 0.02 0.02 0.02 0.02 0.02 0.01 0.01 0.01 0.01 0.02 0.02 0.03
0.02 0.02 0.01 0.00 0.01 0.01 0.01 0.01 0.02 0.04 0.03 0.03 0.03 0.03 0.02 0.02 0.02 0.01 0.01 0.01 0.01 0.01 0.01 0.02 0.02 0.02 0.01 0.02 0.02 0.01 0.02 0.02 0.01 0.01 0.03 0.03 0.02 0.01 0.01 0.01 0.01 0.01 0.02 0.03
0.03 0.03 0.02 0.00 0.00 0.01 0.01 0.01 0.02 0.03 0.02 0.02 0.02 0.02 0.02 0.01 0.01 0.01 0.01 0.01 0.01 0.01 0.01 0.02 0.02 0.02 0.02 0.02 0.02 0.01 0.01 0.01 0.01 0.01 0.01 0.03 0.04 0.02 0.01 0.01 0.01 0.01 0.02 0.02
0.05 0.06 0.04 0.02 0.01 0.01 0.01 0.01 0.01 0.01 0.02 0.02 0.02 0.02 0.01 0.00 0.00 0.00 0.00 0.01 0.00 0.01 0.01 0.01 0.02 0.01 0.01 0.01 0.01 0.01 0.01 0.02 0.02 0.02 0.01 0.01 0.02 0.03 0.02 0.02 0.02 0.02 0.02 0.02
0.03 0.04 0.02 0.01 0.01 0.00 0.01 0.00 0.01 0.02 0.03 0.02 0.01 0.01 0.00 0.00 0.00 0.00 0.00 0.00 0.00 0.00 0.01 0.02 0.01 0.01 0.01 0.01 0.01 0.01 0.01 0.01 0.02 0.02 0.02 0.01 0.01 0.02 0.02 0.02 0.02 0.02 0.02 0.02
0.02 0.03 0.01 0.00 0.00 0.00 0.00 0.00 0.00 0.01 0.01 0.02 0.01 0.01 0.01 0.00 0.00 0.00 0.00 0.00 0.00 0.01 0.01 0.02 0.02 0.01 0.01 0.00 0.01 0.01 0.01 0.02 0.02 0.03 0.02 0.01 0.01 0.01 0.01 0.01 0.02 0.03 0.03 0.03
0.02 0.02 0.01 0.01 0.00 0.00 0.00 0.00 0.00 0.00 0.00 0.00 0.00 0.00 0.00 0.00 0.00 0.00 0.00 0.00 0.00 0.00 0.01 0.01 0.01 0.01 0.01 0.00 0.00 0.01 0.01 0.03 0.03 0.02 0.03 0.03 0.01 0.01 0.01 0.01 0.02 0.03 0.03 0.03
0.02 0.03 0.02 0.01 0.00 0.01 0.01 0.01 0.00 0.00 0.00 0.00 0.01 0.01 0.00 0.00 0.00 0.00 0.00 0.00 0.00 0.00 0.00 0.01 0.01 0.01 0.01 0.01 0.01 0.01 0.01 0.01 0.01 0.02 0.02 0.02 0.02 0.01 0.01 0.01 0.02 0.02 0.02 0.03
0.02 0.02 0.04 0.03 0.01 0.01 0.01 0.00 0.01 0.01 0.01 0.01 0.01 0.00 0.00 0.00 0.00 0.00 0.01 0.01 0.01 0.01 0.00 0.00 0.01 0.01 0.01 0.01 0.01 0.01 0.01 0.01 0.01 0.01 0.01 0.02 0.02 0.01 0.01 0.01 0.01 0.01 0.02 0.02
0.01 0.02 0.04 0.04 0.03 0.01 0.00 0.00 0.01 0.01 0.01 0.01 0.00 0.00 0.00 0.00 0.00 0.00 0.00 0.01 0.01 0.01 0.01 0.01 0.00 0.00 0.01 0.01 0.01 0.01 0.01 0.01 0.01 0.01 0.01 0.02 0.01 0.01 0.01 0.02 0.01 0.01 0.01 0.01
0.01 0.02 0.04 0.05 0.04 0.01 0.00 0.00 0.00 0.01 0.01 0.01 0.00 0.00 0.00 0.00 0.01 0.00 0.01 0.01 0.01 0.01 0.01 0.01 0.01 0.01 0.01 0.01 0.02 0.02 0.02 0.01 0.02 0.02 0.02 0.03 0.03 0.02 0.02 0.02 0.02 0.02 0.02 0.01
0.01 0.02 0.04 0.03 0.03 0.01 0.00 0.00 0.00 0.01 0.01 0.00 0.00 0.00 0.00 0.00 0.01 0.01 0.01 0.02 0.02 0.02 0.02 0.01 0.01 0.01 0.01 0.01 0.01 0.02 0.02 0.02 0.02 0.03 0.03 0.03 0.02 0.02 0.02 0.02 0.02 0.02 0.02 0.02
0.01 0.02 0.02 0.02 0.03 0.01 0.00 0.00 0.01 0.01 0.01 0.01 0.01 0.00 0.00 0.00 0.00 0.00 0.01 0.02 0.02 0.02 0.02 0.02 0.01 0.01 0.01 0.01 0.01 0.01 0.02 0.02 0.02 0.02 0.02 0.02 0.02 0.02 0.01 0.02 0.02 0.03 0.03 0.03
0.01 0.01 0.02 0.02 0.01 0.01 0.01 0.01 0.01 0.01 0.01 0.01 0.00 0.00 0.00 0.00 0.00 0.00 0.01 0.02 0.02 0.01 0.01 0.02 0.01 0.01 0.01 0.01 0.01 0.01 0.01 0.01 0.01 0.01 0.01 0.02 0.02 0.02 0.01 0.02 0.02 0.03 0.04 0.04
0.01 0.01 0.01 0.01 0.00 0.00 0.00 0.01 0.01 0.00 0.00 0.01 0.01 0.00 0.00 0.00 0.00 0.00 0.01 0.01 0.02 0.02 0.01 0.01 0.01 0.01 0.01 0.01 0.01 0.01 0.01 0.01 0.01 0.01 0.01 0.01 0.01 0.02 0.02 0.01 0.01 0.03 0.04 0.04
0.01 0.01 0.01 0.01 0.01 0.01 0.01 0.00 0.00 0.00 0.00 0.01 0.01 0.00 0.00 0.00 0.00 0.00 0.00 0.01 0.02 0.02 0.02 0.02 0.01 0.01 0.01 0.01 0.01 0.01 0.00 0.00 0.00 0.01 0.01 0.01 0.01 0.01 0.02 0.02 0.01 0.02 0.02 0.03
0.01 0.01 0.02 0.02 0.01 0.01 0.01 0.01 0.00 0.00 0.00 0.00 0.00 0.00 0.00 0.00 0.00 0.00 0.00 0.01 0.01 0.02 0.02 0.02 0.01 0.01 0.01 0.01 0.01 0.00 0.00 0.01 0.01 0.01 0.01 0.01 0.01 0.01 0.01 0.02 0.02 0.02 0.02 0.03
MSLP
1013.35 1013.14 1012.87 1012.57 1012.25 1011.93 1011.61 1011.29 1010.94 1010.55 1010.11 1009.62 1009.09 1008.58 1008.12 1007.79 1007.63 1007.67 1007.92 1008.35 1008.91 1009.54 1010.19 1010.80 1011.35 1011.83 1012.28 1012.74 1013.25 1013.85 1014.57 1015.39 1016.30 1017.23 1018.14 1018.95 1019.62 1020.12 1020.45 1020.63 1020.71 1020.73 1020.74 1020.78
1013.37 1013.08 1012.73 1012.35 1011.96 1011.60 1011.27 1010.95 1010.64 1010.30 1009.91 1009.46 1008.96 1008.46 1008.02 1007.69 1007.55 1007.61 1007.90 1008.39 1009.02 1009.73 1010.44 1011.09 1011.64 1012.10 1012.49 1012.87 1013.28 1013.79 1014.42 1015.20 1016.08 1017.03 1017.97 1018.84 1019.57 1020.13 1020.51 1020.73 1020.83 1020.86 1020.87 1020.91
1013.35 1012.95 1012.49 1012.02 1011.56 1011.15 1010.81 1010.51 1010.24 1009.96 1009.63 1009.25 1008.81 1008.37 1007.96 1007.67 1007.56 1007.67 1008.00 1008.54 1009.23 1010.00 1010.76 1011.44 1012.01 1012.45 1012.80 1013.10 1013.43 1013.85 1014.40 1015.11 1015.94 1016.86 1017.80 1018.68 1019.45 1020.05 1020.48 1020.75 1020.89 1020.95 1020.98 1021.03
1013.33 1012.80 1012.21 1011.62 1011.08 1010.61 1010.24 1009.96 1009.74 1009.52 1009.28 1008.99 1008.65 1008.29 1007.96 1007.74 1007.69 1007.85 1008.23 1008.82 1009.55 1010.36 1011.15 1011.86 1012.43 1012.86 1013.18 1013.43 1013.69 1014.02 1014.49 1015.11 1015.87 1016.73 1017.63 1018.49 1019.27 1019.90 1020.37 1020.68 1020.87 1020.99 1021.06 1021.15
1013.44 1012.72 1011.97 1011.24 1010.58 1010.03 1009.63 1009.35 1009.16 1009.01 1008.87 1008.69 1008.47 1008.23 1008.02 1007.91 1007.94 1008.17 1008.61 1009.23 1009.99 1010.82 1011.62 1012.33 1012.90 1013.32 1013.61 1013.82 1014.03 1014.29 1014.66 1015.19 1015.85 1016.63 1017.46 1018.28 1019.03 1019.67 1020.18 1020.54 1020.79 1020.97 1021.10 1021.23
1013.74 1012.82 1011.87 1010.96 1010.16 1009.52 1009.04 1008.74 1008.57 1008.49 1008.44 1008.39 1008.32 1008.23 1008.17 1008.19 1008.34 1008.66 1009.15 1009.81 1010.58 1011.39 1012.19 1012.88 1013.43 1013.83 1014.09 1014.27 1014.42 1014.62 1014.91 1015.33 1015.89 1016.57 1017.31 1018.06 1018.77 1019.40 1019.92 1020.33 1020.65 1020.89 1021.09 1021.27
1014.30 1013.16 1012.00 1010.91 1009.95 1009.18 1008.62 1008.27 1008.10 1008.07 1008.11 1008.18 1008.26 1008.35 1008.46 1008.63 1008.91 1009.32 1009.88 1010.55 1011.32 1012.11 1012.86 1013.51 1014.03 1014.39 1014.62 1014.76 1014.86 1014.99 1015.21 1015.53 1015.98 1016.54 1017.17 1017.84 1018.49 1019.09 1019.62 1020.07 1020.44 1020.74 1021.01 1021.25
1015.12 1013.78 1012.43 1011.17 1010.06 1009.16 1008.50 1008.09 1007.90 1007.89 1008.00 1008.19 1008.41 1008.67 1008.95 1009.29 1009.70 1010.21 1010.81 1011.50 1012.24 1012.98 1013.66 1014.24 1014.70 1015.01 1015.19 1015.29 1015.35 1015.42 1015.55 1015.78 1016.12 1016.56 1017.07 1017.64 1018.21 1018.77 1019.28 1019.75 1020.15 1020.52 1020.84 1021.13
1016.14 1014.65 1013.18 1011.79 1010.56 1009.55 1008.80 1008.33 1008.11 1008.11 1008.26 1008.54 1008.89 1009.29 1009.73 1010.21 1010.74 1011.33 1011.97 1012.65 1013.34 1014.00 1014.59 1015.08 1015.45 1015.69 1015.82 1015.86 1015.87 1015.88 1015.95 1016.08 1016.31 1016.63 1017.02 1017.47 1017.95 1018.44 1018.92 1019.38 1019.81 1020.21 1020.58 1020.91
1017.25 1015.72 1014.20 1012.77 1011.48 1010.42 1009.62 1009.10 1008.85 1008.84 1009.03 1009.36 1009.80 1010.31 1010.86 1011.45 1012.07 1012.70 1013.35 1013.99 1014.60 1015.17 1015.65 1016.02 1016.29 1016.44 1016.50 1016.49 1016.44 1016.40 1016.39 1016.44 1016.56 1016.76 1017.03 1017.36 1017.74 1018.14 1018.56 1018.99 1019.41 1019.83 1020.22 1020.58
1018.35 1016.90 1015.45 1014.06 1012.82 1011.78 1010.98 1010.44 1010.18 1010.16 1010.35 1010.71 1011.19 1011.76 1012.38 1013.02 1013.67 1014.30 1014.92 1015.49 1016.00 1016.44 1016.79 1017.04 1017.19 1017.25 1017.23 1017.17 1017.07 1016.97 1016.90 1016.87 1016.89 1016.97 1017.12 1017.32 1017.58 1017.88 1018.23 1018.60 1018.99 1019.39 1019.78 1020.15
1019.36 1018.09 1016.82 1015.59 1014.48 1013.53 1012.79 1012.29 1012.04 1012.02 1012.20 1012.55 1013.03 1013.59 1014.21 1014.84 1015.46 1016.05 1016.59 1017.05 1017.44 1017.75 1017.96 1018.08 1018.12 1018.09 1018.00 1017.87 1017.73 1017.58 1017.45 1017.34 1017.28 1017.25 1017.28 1017.36 1017.50 1017.69 1017.94 1018.24 1018.57 1018.93 1019.30 1019.66
1020.25 1019.25 1018.23 1017.25 1016.34 1015.56 1014.94 1014.51 1014.29 1014.26 1014.42 1014.73 1015.16 1015.67 1016.23 1016.79 1017.33 1017.82 1018.24 1018.58 1018.83 1018.99 1019.07 1019.07 1019.00 1018.89 1018.74 1018.57 1018.39 1018.20 1018.02 1017.86 1017.71 1017.59 1017.51 1017.48 1017.50 1017.58 1017.73 1017.94 1018.20 1018.50 1018.82 1019.15
1021.05 1020.36 1019.64 1018.93 1018.27 1017.68 1017.21 1016.88 1016.70 1016.68 1016.80 1017.05 1017.39 1017.80 1018.25 1018.69 1019.10 1019.45 1019.73 1019.93 1020.03 1020.06 1020.02 1019.91 1019.77 1019.59 1019.40 1019.20 1018.99 1018.78 1018.57 1018.35 1018.15 1017.95 1017.78 1017.65 1017.57 1017.55 1017.60 1017.72 1017.90 1018.14 1018.40 1018.69
1021.84 1021.43 1021.00 1020.56 1020.13 1019.74 1019.42 1019.18 1019.05 1019.02 1019.09 1019.26 1019.49 1019.77 1020.07 1020.36 1020.61 1020.81 1020.93 1020.98 1020.95 1020.86 1020.72 1020.54 1020.34 1020.12 1019.91 1019.70 1019.48 1019.26 1019.02 1018.78 1018.53 1018.28 1018.04 1017.83 1017.67 1017.57 1017.54 1017.59 1017.70 1017.86 1018.06 1018.29
1022.67 1022.49 1022.27 1022.04 1021.80 1021.57 1021.36 1021.19 1021.09 1021.04 1021.05 1021.12 1021.24 1021.37 1021.51 1021.64 1021.72 1021.76 1021.73 1021.64 1021.50 1021.32 1021.10 1020.87 1020.64 1020.41 1020.20 1019.99 1019.78 1019.55 1019.32 1019.06 1018.79 1018.51 1018.23 1017.97 1017.76 1017.61 1017.52 1017.51 1017.56 1017.66 1017.81 1017.98
1023.60 1023.53 1023.44 1023.32 1023.18 1023.03 1022.88 1022.75 1022.64 1022.56 1022.51 1022.48 1022.47 1022.47 1022.46 1022.42 1022.35 1022.24 1022.08 1021.88 1021.65 1021.39 1021.13 1020.88 1020.64 1020.41 1020.21 1020.02 1019.82 1019.61 1019.39 1019.13 1018.85 1018.56 1018.27 1018.00 1017.77 1017.60 1017.48 1017.44 1017.45 1017.50 1017.60 1017.71
1024.60 1024.54 1024.45 1024.33 1024.20 1024.05 1023.90 1023.75 1023.60 1023.47 1023.35 1023.23 1023.11 1022.99 1022.85 1022.68 1022.48 1022.25 1021.99 1021.70 1021.41 1021.11 1020.82 1020.56 1020.32 1020.11 1019.93 1019.75 1019.58 1019.39 1019.17 1018.93 1018.66 1018.39 1018.11 1017.85 1017.63 1017.46 1017.35 1017.29 1017.29 1017.32 1017.37 1017.44
1025.58 1025.42 1025.24 1025.04 1024.83 1024.61 1024.39 1024.19 1023.99 1023.79 1023.60 1023.41 1023.21 1022.99 1022.75 1022.49 1022.20 1021.88 1021.54 1021.20 1020.85 1020.53 1020.23 1019.96 1019.74 1019.54 1019.37 1019.21 1019.04 1018.87 1018.67 1018.44 1018.20 1017.94 1017.70 1017.47 1017.28 1017.14 1017.05 1017.00 1017.00 1017.02 1017.05 1017.08
1026.41 1026.10 1025.76 1025.41 1025.07 1024.74 1024.43 1024.15 1023.88 1023.63 1023.39 1023.14 1022.89 1022.61 1022.31 1021.98 1021.62 1021.25 1020.86 1020.47 1020.10 1019.76 1019.45 1019.18 1018.95 1018.75 1018.58 1018.43 1018.26 1018.09 1017.90 1017.69 1017.47 1017.25 1017.03 1016.85 1016.70 1016.60 1016.54 1016.52 1016.52 1016.54 1016.56 1016.57
1026.96 1026.47 1025.95 1025.45 1024.96 1024.51 1024.10 1023.75 1023.43 1023.13 1022.86 1022.59 1022.31 1022.00 1021.67 1021.30 1020.91 1020.50 1020.08 1019.66 1019.27 1018.90 1018.57 1018.29 1018.05 1017.84 1017.65 1017.48 1017.31 1017.13 1016.94 1016.74 1016.53 1016.34 1016.16 1016.01 1015.90 1015.83 1015.81 1015.81 1015.83 1015.86 1015.87 1015.87
1027.10 1026.46 1025.80 1025.15 1024.55 1024.01 1023.53 1023.12 1022.77 1022.47 1022.18 1021.91 1021.62 1021.31 1020.96 1020.59 1020.17 1019.74 1019.30 1018.86 1018.43 1018.04 1017.69 1017.38 1017.11 1016.87 1016.66 1016.46 1016.26 1016.06 1015.86 1015.66 1015.47 1015.29 1015.14 1015.02 1014.94 1014.90 1014.89 1014.91 1014.93 1014.96 1014.98 1014.97
1026.80 1026.06 1025.31 1024.59 1023.93 1023.34 1022.83 1022.41 1022.06 1021.77 1021.50 1021.23 1020.96 1020.65 1020.31 1019.92 1019.50 1019.05 1018.58 1018.12 1017.67 1017.24 1016.86 1016.51 1016.20 1015.92 1015.67 1015.43 1015.20 1014.98 1014.77 1014.56 1014.37 1014.19 1014.05 1013.95 1013.88 1013.85 1013.85 1013.87 1013.89 1013.91 1013.91 1013.91
1026.10 1025.33 1024.56 1023.83 1023.17 1022.59 1022.11 1021.71 1021.40 1021.13 1020.89 1020.64 1020.38 1020.08 1019.74 1019.34 1018.90 1018.43 1017.94 1017.45 1016.97 1016.52 1016.09 1015.71 1015.35 1015.03 1014.74 1014.46 1014.20 1013.95 1013.72 1013.50 1013.30 1013.13 1012.99 1012.89 1012.82 1012.78 1012.76 1012.76 1012.76 1012.77 1012.76 1012.74
1025.12 1024.38 1023.65 1022.97 1022.36 1021.85 1021.43 1021.10 1020.82 1020.59 1020.38 1020.15 1019.89 1019.59 1019.23 1018.82 1018.36 1017.87 1017.35 1016.83 1016.32 1015.84 1015.38 1014.96 1014.57 1014.21 1013.88 1013.57 1013.29 1013.01 1012.76 1012.53 1012.33 1012.15 1012.01 1011.89 1011.81 1011.75 1011.71 1011.67 1011.64 1011.61 1011.58 1011.55
1024.01 1023.34 1022.69 1022.11 1021.60 1021.18 1020.84 1020.57 1020.35 1020.15 1019.95 1019.72 1019.45 1019.12 1018.73 1018.29 1017.80 1017.28 1016.74 1016.20 1015.67 1015.16 1014.68 1014.23 1013.82 1013.44 1013.08 1012.75 1012.44 1012.15 1011.89 1011.66 1011.45 1011.27 1011.11 1010.99 1010.88 1010.80 1010.72 1010.65 1010.59 1010.52 1010.45 1010.40
Thickness
5534 5524 5524 5529 5531 5533 5530 5528 5529 5537 5543 5543 5544 5552 5561 5563 5564 5566 5569 5572 5576 5581 5587 5590 5592 5594 5595 5597 5597 5598 5600 5601 5601 5601 5600 5599 5598 5599 5599 5600 5600 5600 5599 5599
5516 5517 5525 5526 5526 5526 5523 5519 5520 5528 5533 5533 5533 5541 5552 5554 5557 5559 5562 5564 5568 5571 5575 5579 5580 5583 5585 5586 5588 5589 5590 5592 5593 5593 5594 5593 5591 5590 5590 5591 5591 5591 5591 5590
5511 5516 5521 5519 5517 5516 5515 5512 5512 5515 5521 5522 5520 5528 5540 5547 5550 5553 5555 5557 5560 5564 5566 5568 5569 5571 5573 5575 5578 5580 5581 5582 5583 5584 5583 5582 5579 5578 5578 5579 5580 5581 5581 5582
5502 5510 5511 5508 5508 5509 5505 5511 5510 5509 5502 5497 5506 5504 5528 5536 5538 5543 5545 5547 5550 5554 5556 5558 5559 5561 5563 5566 5568 5569 5571 5572 5572 5573 5573 5573 5572 5570 5570 5571 5570 5571 5572 5572
5494 5500 5500 5499 5502 5502 5499 5504 5502 5499 5491 5487 5492 5489 5513 5524 5527 5534 5536 5538 5541 5544 5547 5549 5550 5552 5554 5556 5557 5559 5560 5561 5562 5563 5563 5563 5562 5561 5560 5560 5560 5560 5561 5562
5490 5494 5494 5494 5496 5495 5493 5491 5487 5479 5476 5478 5489 5486 5501 5511 5523 5528 5531 5531 5532 5533 5536 5539 5541 5543 5544 5545 5546 5548 5549 5550 5551 5552 5552 5552 5552 5551 5550 5550 5549 5549 5550 5552
5477 5483 5486 5487 5483 5484 5482 5470 5461 5461 5460 5474 5487 5486 5498 5514 5519 5521 5523 5523 5522 5523 5524 5527 5530 5531 5533 5534 5535 5537 5539 5539 5540 5541 5542 5542 5542 5541 5541 5541 5541 5540 5541 5542
5461 5465 5475 5477 5476 5471 5471 5470 5458 5455 5458 5469 5479 5480 5498 5509 5512 5514 5514 5514 5514 5514 5515 5517 5519 5520 5522 5524 5526 5527 5529 5530 5531 5531 5532 5532 5532 5531 5532 5532 5532 5532 5533 5534
5452 5457 5469 5472 5473 5471 5465 5462 5464 5451 5448 5455 5467 5475 5492 5502 5503 5503 5504 5504 5505 5505 5507 5508 5510 5511 5513 5515 5516 5518 5519 5521 5521 5522 5522 5522 5522 5522 5523 5523 5523 5524 5525 5526
5451 5446 5456 5462 5466 5465 5465 5459 5447 5446 5448 5455 5465 5469 5478 5489 5491 5492 5493 5493 5494 5497 5498 5499 5500 5502 5503 5505 5507 5508 5510 5511 5512 5513 5513 5514 5513 5513 5514 5514 5515 5515 5517 5518
5443 5436 5439 5447 5450 5452 5452 5449 5444 5437 5438 5445 5449 5469 5485 5484 5484 5481 5481 5483 5484 5485 5486 5488 5490 5492 5494 5495 5496 5498 5500 5502 5502 5503 5504 5504 5504 5504 5505 5506 5507 5508 5509 5511
5435 5424 5423 5433 5444 5448 5447 5445 5437 5433 5430 5428 5434 5459 5480 5477 5475 5474 5473 5475 5476 5476 5477 5479 5481 5483 5484 5485 5487 5489 5491 5492 5494 5494 5495 5495 5496 5496 5496 5497 5499 5500 5502 5503
5429 5417 5415 5424 5430 5432 5433 5436 5432 5425 5420 5418 5426 5452 5470 5466 5466 5466 5466 5467 5467 5467 5468 5470 5472 5473 5474 5476 5478 5479 5482 5483 5484 5486 5486 5487 5487 5487 5488 5489 5491 5492 5493 5494
5426 5410 5410 5417 5424 5421 5420 5425 5425 5418 5415 5417 5430 5445 5458 5457 5457 5457 5457 5459 5459 5459 5460 5461 5462 5464 5465 5467 5468 5470 5472 5474 5476 5478 5478 5479 5479 5480 5481 5482 5482 5484 5485 5486
5412 5402 5400 5406 5415 5415 5417 5420 5420 5416 5418 5419 5432 5437 5452 5451 5449 5449 5449 5450 5451 5452 5453 5455 5455 5455 5456 5458 5459 5461 5463 5465 5467 5469 5470 5471 5472 5472 5472 5473 5474 5476 5477 5478
5398 5391 5392 5399 5408 5408 5411 5416 5416 5418 5419 5419 5425 5434 5446 5443 5440 5440 5440 5442 5443 5444 5446 5447 5447 5448 5449 5450 5451 5453 5454 5457 5459 5460 5462 5463 5463 5463 5463 5464 5466 5467 5468 5469
5385 5381 5381 5386 5390 5394 5400 5413 5414 5415 5418 5418 5422 5434 5436 5433 5434 5435 5435 5435 5436 5437 5437 5438 5439 5440 5441 5442 5444 5445 5447 5449 5451 5453 5453 5454 5454 5455 5455 5456 5457 5458 5459 5460
5379 5374 5368 5370 5372 5378 5411 5416 5415 5413 5415 5415 5419 5424 5425 5426 5428 5428 5427 5427 5428 5429 5429 5430 5430 5431 5433 5435 5436 5437 5439 5441 5443 5445 5446 5446 5447 5448 5448 5448 5448 5449 5449 5450
5380 5371 5361 5360 5363 5377 5403 5409 5406 5403 5408 5412 5412 5415 5416 5417 5417 5417 5420 5421 5421 5421 5421 5421 5422 5423 5424 5426 5428 5429 5431 5432 5434 5436 5437 5439 5439 5439 5439 5439 5440 5440 5440 5441
5369 5364 5357 5353 5362 5370 5401 5406 5404 5400 5398 5409 5406 5406 5406 5406 5404 5411 5414 5413 5412 5412 5412 5413 5414 5415 5417 5418 5419 5420 5422 5424 5426 5428 5429 5430 5431 5431 5431 5431 5431 5432 5432 5432
5359 5354 5351 5351 5354 5370 5393 5396 5397 5387 5397 5403 5401 5400 5399 5398 5400 5403 5403 5403 5404 5404 5405 5406 5406 5407 5409 5411 5412 5413 5414 5416 5419 5420 5421 5422 5423 5423 5423 5423 5423 5423 5423 5423
5360 5353 5349 5347 5351 5370 5390 5386 5385 5390 5394 5393 5393 5392 5391 5392 5392 5393 5394 5395 5396 5396 5397 5397 5398 5399 5401 5403 5404 5405 5407 5409 5410 5411 5412 5413 5414 5414 5415 5414 5414 5414 5414 5414
5357 5363 5361 5363 5375 5384 5382 5383 5385 5384 5383 5385 5383 5384 5384 5383 5384 5386 5386 5386 5387 5388 5388 5389 5390 5391 5393 5395 5397 5398 5400 5401 5402 5403 5403 5404 5405 5406 5406 5406 5405 5405 5405 5405
5354 5358 5356 5357 5368 5374 5375 5375 5377 5377 5377 5378 5378 5378 5377 5376 5377 5378 5378 5379 5379 5380 5380 5381 5382 5384 5385 5387 5389 5391 5393 5394 5394 5394 5395 5395 5396 5396 5397 5397 5397 5397 5397 5397
5356 5350 5350 5354 5361 5365 5369 5370 5371 5371 5371 5371 5371 5371 5370 5370 5370 5370 5371 5371 5372 5373 5372 5373 5374 5376 5378 5380 5381 5383 5384 5385 5386 5386 5387 5387 5388 5388 5388 5388 5389 5390 5391 5392
5350 5348 5350 5358 5363 5360 5364 5367 5366 5364 5363 5363 5363 5362 5363 5363 5362 5363 5363 5364 5364 5365 5365 5366 5367 5368 5370 5372 5373 5375 5376 5377 5377 5378 5378 5379 5379 5379 5379 5379 5380 5382 5383 5385